Total_Precipitation_Accumulation
0.03 0.01 0.02 0.01 0.15 0.28 0.73 1.02 1.39 0.52 0.85 0.82 0.87 0.81 0.81 0.34 0.30 1.10 0.63 0.28 0.63 0.52 0.16 0.07 0.07 0.19 0.81 0.64 0.53 0.10 0.09 0.66 0.49 0.29 0.66 0.64 0.89 0.44 0.38 0.41 0.44 0.33 0.48 0.58 0.97 0.96 0.74 0.82 0.91 1.05 1.28 1.08 1.19 1.10 0.60 0.67 0.59 0.36 0.63 0.55 0.64 0.65 0.26 0.33 0.32 0.25 0.14 0.11 0.08 0.10 0.06 0.08 0.14 0.04 0.04 0.04 0.06 0.06 0.09 0.10 0.09 0.18 0.17 0.30 0.37 0.29 0.29 0.21 0.15 0.13 0.09 0.14 0.05 0.05 0.05 0.08 0.06
0.01 0.01 0.00 0.01 0.19 0.45 1.24 0.33 0.92 1.05 0.62 0.85 0.12 0.67 0.45 0.37 0.53 0.70 0.36 0.70 0.64 0.48 0.17 0.07 0.16 0.06 0.09 0.07 0.12 0.08 0.09 0.11 0.07 0.11 0.27 0.35 0.51 0.58 0.49 0.36 0.29 0.33 0.24 0.38 0.51 0.75 0.56 0.88 0.83 0.93 0.98 1.23 1.09 0.69 0.62 0.63 0.65 0.43 0.57 0.43 0.66 0.48 0.34 0.15 0.19 0.19 0.13 0.07 0.11 0.07 0.05 0.09 0.04 0.06 0.04 0.04 0.05 0.05 0.08 0.08 0.08 0.23 0.35 0.28 0.23 0.28 0.30 0.17 0.15 0.15 0.16 0.12 0.10 0.04 0.11 0.08 0.05
0.00 0.01 0.07 0.11 0.17 0.46 0.81 0.46 1.01 0.88 0.59 0.48 0.29 0.17 0.24 0.49 0.57 0.44 0.50 0.25 0.43 0.30 0.08 0.09 0.12 0.24 0.18 0.12 0.33 0.19 0.35 0.20 0.05 0.11 0.34 0.36 0.40 0.82 0.44 0.39 0.20 0.27 0.26 0.29 0.32 0.44 0.53 0.76 0.50 1.00 1.11 1.12 0.61 0.57 0.57 0.38 0.26 0.34 0.33 0.51 0.36 0.56 0.25 0.18 0.13 0.14 0.09 0.06 0.05 0.07 0.06 0.06 0.06 0.05 0.05 0.06 0.06 0.09 0.10 0.11 0.21 0.20 0.24 0.40 0.24 0.35 0.30 0.11 0.17 0.19 0.21 0.17 0.18 0.11 0.10 0.12 0.07
0.00 0.01 0.06 0.10 0.83 0.23 0.56 0.61 0.29 1.06 0.37 0.54 0.29 0.20 0.17 0.26 0.10 0.17 0.14 0.20 0.26 0.05 0.06 0.16 0.65 0.10 0.20 0.14 0.13 0.12 0.12 0.18 0.09 0.07 0.43 0.51 0.27 0.24 0.21 0.22 0.25 0.20 0.25 0.20 0.21 0.53 0.63 0.38 0.47 0.94 0.82 0.83 0.61 0.46 0.38 0.30 0.29 0.34 0.32 0.48 0.42 0.37 0.15 0.11 0.10 0.07 0.09 0.05 0.08 0.09 0.05 0.06 0.04 0.05 0.06 0.04 0.08 0.07 0.04 0.15 0.32 0.28 0.35 0.45 0.25 0.33 0.35 0.25 0.14 0.17 0.19 0.10 0.08 0.13 0.11 0.11 0.09
0.01 0.07 0.07 0.20 0.67 0.77 0.56 0.65 0.33 0.84 0.54 0.50 0.51 0.21 0.19 0.25 0.14 0.30 0.29 0.32 0.22 0.30 0.09 0.17 0.12 0.11 0.12 0.20 0.13 0.45 0.21 0.19 0.18 0.13 0.20 0.24 0.13 0.24 0.29 0.15 0.25 0.21 0.22 0.41 0.37 0.50 0.60 0.28 0.39 0.82 0.83 0.60 0.46 0.43 0.43 0.26 0.24 0.29 0.19 0.22 0.19 0.16 0.15 0.08 0.08 0.08 0.04 0.05 0.04 0.07 0.05 0.08 0.06 0.04 0.05 0.09 0.09 0.09 0.12 0.27 0.24 0.26 0.29 0.50 0.45 0.24 0.24 0.13 0.10 0.12 0.14 0.16 0.12 0.11 0.11 0.09 0.08
0.06 0.11 0.11 0.41 0.58 0.38 0.45 0.17 0.58 0.11 0.15 0.43 0.43 0.18 0.41 0.28 0.08 0.03 0.03 0.16 0.12 0.19 0.14 0.06 0.11 0.18 0.23 0.11 0.08 0.20 0.12 0.31 0.19 0.13 0.12 0.24 0.19 0.11 0.14 0.10 0.16 0.25 0.28 0.36 0.46 0.38 0.48 0.25 0.30 0.29 0.54 0.44 0.33 0.37 0.25 0.19 0.21 0.25 0.19 0.21 0.18 0.24 0.11 0.07 0.09 0.08 0.05 0.04 0.04 0.07 0.08 0.07 0.04 0.04 0.06 0.04 0.07 0.08 0.15 0.18 0.52 0.32 0.30 0.26 0.23 0.15 0.20 0.26 0.18 0.09 0.13 0.10 0.08 0.11 0.10 0.09 0.09
0.20 0.19 0.34 0.42 0.23 0.80 0.36 0.70 0.18 0.25 0.05 0.19 0.06 0.31 0.53 0.29 0.05 0.06 0.03 0.06 0.32 0.24 0.20 0.09 0.03 0.03 0.12 0.14 0.06 0.07 0.05 0.04 0.06 0.11 0.05 0.14 0.09 0.10 0.10 0.12 0.13 0.22 0.20 0.19 0.26 0.36 0.40 0.24 0.34 0.54 0.40 0.38 0.30 0.39 0.33 0.18 0.13 0.17 0.21 0.22 0.15 0.15 0.10 0.08 0.07 0.07 0.05 0.03 0.03 0.04 0.05 0.03 0.05 0.03 0.03 0.03 0.04 0.07 0.06 0.08 0.09 0.31 0.19 0.19 0.19 0.29 0.24 0.28 0.22 0.19 0.12 0.12 0.08 0.11 0.09 0.09 0.06
0.08 0.36 0.46 0.19 0.47 0.18 0.38 0.15 0.13 0.11 0.04 0.12 0.05 0.32 0.27 0.11 0.11 0.21 0.03 0.05 0.03 0.08 0.06 0.08 0.08 0.12 0.34 0.06 0.33 0.24 0.09 0.07 0.07 0.04 0.05 0.06 0.07 0.09 0.13 0.11 0.17 0.13 0.17 0.21 0.24 0.31 0.27 0.24 0.25 0.23 0.41 0.28 0.37 0.25 0.26 0.15 0.13 0.17 0.17 0.20 0.14 0.15 0.10 0.12 0.09 0.08 0.05 0.05 0.06 0.05 0.02 0.03 0.05 0.03 0.03 0.02 0.03 0.02 0.04 0.04 0.07 0.14 0.08 0.24 0.33 0.34 0.21 0.15 0.18 0.15 0.19 0.10 0.08 0.03 0.06 0.08 0.05
0.13 0.13 0.12 0.47 0.55 0.50 0.10 0.08 0.08 0.03 0.08 0.03 0.15 0.08 0.16 0.47 0.31 0.38 0.20 0.08 0.02 0.03 0.09 0.04 0.06 0.12 0.33 0.16 0.21 0.15 0.10 0.04 0.02 0.02 0.04 0.07 0.08 0.08 0.12 0.09 0.11 0.17 0.18 0.17 0.25 0.20 0.31 0.28 0.33 0.24 0.24 0.28 0.15 0.20 0.13 0.13 0.12 0.15 0.17 0.13 0.11 0.09 0.11 0.08 0.08 0.05 0.04 0.06 0.04 0.04 0.04 0.03 0.04 0.03 0.03 0.02 0.02 0.01 0.02 0.02 0.04 0.04 0.07 0.11 0.09 0.16 0.15 0.19 0.07 0.05 0.11 0.08 0.04 0.04 0.05 0.03 0.05
0.28 0.07 0.71 0.37 0.21 0.31 0.15 0.01 0.03 0.04 0.18 0.13 0.26 0.25 0.35 0.39 0.28 0.35 0.08 0.02 0.02 0.02 0.03 0.03 0.06 0.16 0.19 0.10 0.14 0.14 0.17 0.09 0.05 0.13 0.08 0.08 0.10 0.10 0.11 0.12 0.10 0.10 0.14 0.19 0.18 0.27 0.19 0.32 0.18 0.22 0.23 0.16 0.17 0.22 0.14 0.12 0.09 0.08 0.08 0.07 0.12 0.09 0.08 0.06 0.08 0.04 0.05 0.03 0.05 0.03 0.02 0.01 0.02 0.02 0.02 0.01 0.01 0.01 0.01 0.01 0.03 0.03 0.05 0.04 0.03 0.06 0.15 0.11 0.09 0.07 0.08 0.07 0.08 0.05 0.04 0.03 0.03
0.54 0.15 0.09 0.56 0.37 0.33 0.10 0.17 0.08 0.16 0.23 0.11 0.27 0.24 0.10 0.26 0.26 0.07 0.10 0.05 0.01 0.01 0.00 0.01 0.08 0.16 0.09 0.14 0.17 0.10 0.09 0.06 0.04 0.09 0.10 0.09 0.09 0.09 0.10 0.13 0.08 0.07 0.10 0.20 0.18 0.17 0.21 0.35 0.21 0.15 0.15 0.08 0.13 0.14 0.12 0.05 0.05 0.07 0.07 0.08 0.07 0.07 0.07 0.05 0.06 0.02 0.04 0.04 0.03 0.01 0.01 0.01 0.01 0.01 0.00 0.00 0.01 0.01 0.01 0.02 0.02 0.03 0.02 0.01 0.07 0.09 0.07 0.11 0.09 0.06 0.06 0.04 0.02 0.02 0.03 0.03 0.07
0.41 0.27 0.39 0.18 0.41 0.45 0.06 0.05 0.02 0.02 0.16 0.06 0.23 0.03 0.01 0.18 0.43 0.19 0.07 0.02 0.00 0.00 0.00 0.00 0.06 0.12 0.10 0.05 0.24 0.31 0.12 0.08 0.06 0.04 0.09 0.09 0.09 0.08 0.09 0.08 0.06 0.09 0.11 0.09 0.09 0.13 0.17 0.22 0.31 0.38 0.13 0.10 0.10 0.10 0.06 0.06 0.07 0.03 0.06 0.06 0.06 0.06 0.06 0.05 0.05 0.04 0.08 0.02 0.03 0.02 0.01 0.01 0.02 0.01 0.00 0.02 0.01 0.00 0.00 0.02 0.00 0.01 0.01 0.04 0.08 0.12 0.07 0.13 0.07 0.08 0.06 0.10 0.07 0.04 0.05 0.05 0.04
0.19 0.34 0.67 0.83 0.50 0.23 0.06 0.08 0.02 0.02 0.09 0.12 0.04 0.23 0.06 0.04 0.48 0.33 0.23 0.01 0.01 0.01 0.02 0.00 0.00 0.01 0.03 0.05 0.21 0.14 0.16 0.08 0.04 0.04 0.06 0.07 0.10 0.09 0.08 0.10 0.13 0.16 0.08 0.06 0.07 0.09 0.11 0.20 0.28 0.35 0.19 0.15 0.12 0.10 0.06 0.07 0.07 0.05 0.06 0.08 0.04 0.05 0.06 0.04 0.01 0.02 0.03 0.02 0.04 0.03 0.02 0.03 0.02 0.00 0.01 0.01 0.00 0.01 0.02 0.02 0.01 0.01 0.06 0.10 0.18 0.22 0.24 0.16 0.14 0.19 0.24 0.09 0.09 0.04 0.14 0.04 0.04
0.07 0.29 0.39 0.46 0.29 0.13 0.36 0.06 0.06 0.34 0.05 0.03 0.05 0.25 0.06 0.10 0.04 0.46 0.25 0.24 0.02 0.05 0.00 0.00 0.00 0.01 0.04 0.02 0.44 0.17 0.07 0.06 0.02 0.03 0.05 0.06 0.08 0.09 0.12 0.11 0.14 0.08 0.08 0.09 0.06 0.07 0.14 0.18 0.25 0.26 0.18 0.29 0.26 0.18 0.09 0.07 0.05 0.04 0.05 0.05 0.05 0.05 0.02 0.01 0.02 0.02 0.01 0.02 0.02 0.02 0.01 0.02 0.01 0.01 0.02 0.02 0.01 0.02 0.00 0.00 0.01 0.06 0.09 0.13 0.27 0.26 0.21 0.22 0.26 0.34 0.28 0.18 0.18 0.12 0.15 0.07 0.14
0.02 0.13 0.32 0.16 0.37 0.17 0.04 0.56 0.09 0.03 0.04 0.01 0.00 0.02 0.04 0.02 0.04 0.02 0.10 0.07 0.02 0.00 0.00 0.00 0.00 0.01 0.03 0.01 0.10 0.06 0.03 0.03 0.03 0.05 0.05 0.05 0.06 0.09 0.11 0.09 0.10 0.08 0.07 0.07 0.13 0.13 0.12 0.14 0.18 0.14 0.15 0.17 0.13 0.19 0.33 0.17 0.05 0.09 0.05 0.05 0.02 0.02 0.03 0.02 0.01 0.01 0.01 0.01 0.02 0.02 0.01 0.01 0.01 0.01 0.02 0.04 0.01 0.01 0.00 0.00 0.01 0.05 0.08 0.07 0.15 0.20 0.31 0.31 0.41 0.37 0.54 0.22 0.28 0.26 0.24 0.22 0.18
0.00 0.01 0.21 0.39 0.43 0.29 0.11 0.16 0.03 0.08 0.13 0.06 0.01 0.00 0.25 0.13 0.05 0.04 0.02 0.05 0.00 0.00 0.00 0.01 0.00 0.03 0.00 0.01 0.01 0.00 0.00 0.02 0.03 0.01 0.04 0.07 0.08 0.11 0.15 0.13 0.10 0.12 0.11 0.10 0.20 0.15 0.10 0.14 0.17 0.20 0.18 0.11 0.12 0.12 0.14 0.20 0.09 0.06 0.07 0.07 0.03 0.06 0.03 0.03 0.02 0.03 0.03 0.02 0.03 0.03 0.02 0.04 0.03 0.03 0.04 0.04 0.01 0.02 0.01 0.03 0.02 0.05 0.15 0.13 0.16 0.18 0.20 0.30 0.38 0.36 0.43 0.53 0.51 0.30 0.31 0.36 0.45
0.00 0.00 0.32 0.15 0.42 0.24 0.08 0.23 0.06 0.26 0.01 0.00 0.02 0.08 0.01 0.06 0.03 0.01 0.00 0.00 0.00 0.00 0.00 0.00 0.00 0.00 0.00 0.00 0.00 0.00 0.01 0.00 0.01 0.02 0.03 0.13 0.14 0.24 0.26 0.20 0.15 0.14 0.16 0.14 0.15 0.18 0.15 0.16 0.10 0.25 0.16 0.07 0.16 0.10 0.11 0.11 0.10 0.11 0.13 0.09 0.08 0.05 0.08 0.04 0.03 0.05 0.02 0.02 0.02 0.01 0.03 0.13 0.21 0.09 0.12 0.13 0.03 0.12 0.01 0.02 0.10 0.12 0.21 0.30 0.55 0.45 0.34 0.54 0.40 0.58 0.74 0.85 0.53 0.34 0.45 0.67 0.67
0.00 0.18 0.35 0.22 0.47 0.14 0.06 0.12 0.01 0.00 0.10 0.02 0.01 0.03 0.01 0.03 0.01 0.00 0.00 0.00 0.00 0.00 0.00 0.00 0.00 0.00 0.00 0.00 0.00 0.00 0.00 0.01 0.02 0.02 0.04 0.13 0.11 0.18 0.18 0.17 0.16 0.20 0.15 0.25 0.21 0.18 0.17 0.22 0.13 0.17 0.16 0.13 0.13 0.10 0.10 0.07 0.15 0.20 0.13 0.10 0.09 0.08 0.06 0.09 0.05 0.08 0.08 0.08 0.03 0.03 0.18 0.24 0.28 0.26 0.22 0.17 0.10 0.13 0.19 0.06 0.19 0.35 0.25 0.42 0.55 0.69 0.50 0.35 0.47 0.54 0.63 0.70 0.62 0.51 0.64 0.81 0.95
0.00 0.03 0.04 0.28 0.10 0.11 0.10 0.04 0.06 0.16 0.01 0.04 0.04 0.00 0.03 0.00 0.00 0.01 0.13 0.00 0.00 0.00 0.00 0.00 0.00 0.00 0.00 0.00 0.00 0.00 0.00 0.03 0.03 0.01 0.03 0.04 0.05 0.04 0.10 0.10 0.09 0.11 0.19 0.18 0.24 0.16 0.13 0.14 0.13 0.11 0.11 0.17 0.15 0.12 0.14 0.14 0.09 0.10 0.19 0.10 0.08 0.08 0.17 0.06 0.10 0.09 0.11 0.08 0.25 0.15 0.27 0.19 0.14 0.21 0.20 0.18 0.19 0.06 0.09 0.07 0.18 0.23 0.28 0.46 0.43 0.65 0.84 0.74 0.56 0.59 0.83 0.83 0.70 0.72 0.42 0.64 0.60
0.00 0.01 0.21 0.19 0.03 0.23 0.01 0.04 0.03 0.01 0.06 0.00 0.04 0.00 0.00 0.03 0.01 0.01 0.03 0.01 0.00 0.02 0.02 0.00 0.00 0.01 0.00 0.00 0.00 0.00 0.01 0.02 0.01 0.03 0.01 0.03 0.03 0.03 0.02 0.05 0.06 0.04 0.08 0.14 0.11 0.16 0.09 0.13 0.11 0.12 0.09 0.14 0.14 0.12 0.12 0.35 0.11 0.11 0.12 0.11 0.10 0.10 0.10 0.13 0.24 0.17 0.26 0.21 0.21 0.20 0.23 0.14 0.18 0.32 0.12 0.06 0.07 0.10 0.22 0.13 0.16 0.25 0.20 0.24 0.21 0.47 0.46 0.62 0.59 0.37 0.46 0.59 0.55 0.53 0.44 0.43 0.20
0.00 0.00 0.02 0.22 0.23 0.08 0.07 0.02 0.00 0.00 0.00 0.05 0.01 0.01 0.00 0.00 0.00 0.00 0.01 0.00 0.03 0.00 0.00 0.00 0.00 0.00 0.00 0.00 0.00 0.01 0.01 0.02 0.03 0.01 0.02 0.02 0.07 0.03 0.01 0.03 0.06 0.05 0.05 0.09 0.13 0.12 0.09 0.11 0.09 0.10 0.11 0.18 0.12 0.07 0.05 0.15 0.07 0.09 0.12 0.23 0.19 0.10 0.10 0.16 0.22 0.28 0.32 0.32 0.27 0.22 0.23 0.15 0.25 0.14 0.12 0.15 0.07 0.11 0.24 0.15 0.32 0.45 0.26 0.36 0.05 0.30 0.50 0.32 0.45 0.40 0.20 0.20 0.27 0.31 0.35 0.17 0.26
0.00 0.00 0.00 0.01 0.13 0.03 0.02 0.04 0.03 0.00 0.00 0.00 0.00 0.01 0.05 0.00 0.00 0.00 0.04 0.13 0.12 0.01 0.01 0.00 0.00 0.00 0.00 0.00 0.00 0.00 0.00 0.01 0.01 0.01 0.01 0.01 0.01 0.03 0.03 0.03 0.02 0.04 0.03 0.06 0.07 0.17 0.09 0.10 0.09 0.15 0.11 0.12 0.09 0.06 0.08 0.04 0.06 0.08 0.10 0.12 0.09 0.11 0.14 0.14 0.28 0.16 0.30 0.29 0.31 0.13 0.16 0.14 0.14 0.11 0.08 0.14 0.05 0.07 0.17 0.21 0.20 0.34 0.15 0.17 0.22 0.30 0.34 0.36 0.33 0.26 0.21 0.18 0.12 0.26 0.39 0.36 0.20
0.00 0.00 0.00 0.00 0.00 0.06 0.01 0.01 0.00 0.00 0.00 0.00 0.01 0.00 0.00 0.00 0.04 0.00 0.00 0.15 0.02 0.00 0.00 0.00 0.00 0.00 0.00 0.00 0.00 0.01 0.01 0.01 0.01 0.01 0.01 0.02 0.02 0.01 0.01 0.01 0.01 0.02 0.01 0.01 0.05 0.08 0.07 0.08 0.07 0.09 0.13 0.10 0.08 0.05 0.05 0.07 0.05 0.13 0.23 0.19 0.13 0.17 0.12 0.14 0.14 0.30 0.46 0.34 0.18 0.17 0.13 0.12 0.08 0.11 0.12 0.15 0.27 0.35 0.12 0.15 0.18 0.22 0.10 0.12 0.09 0.17 0.16 0.36 0.31 0.16 0.15 0.20 0.20 0.19 0.17 0.21 0.19
0.00 0.00 0.00 0.00 0.00 0.00 0.01 0.03 0.01 0.00 0.00 0.00 0.00 0.00 0.00 0.00 0.00 0.00 0.00 0.00 0.00 0.01 0.00 0.00 0.00 0.00 0.00 0.00 0.00 0.01 0.00 0.00 0.00 0.00 0.00 0.00 0.00 0.00 0.00 0.01 0.01 0.01 0.01 0.02 0.02 0.03 0.05 0.07 0.07 0.11 0.12 0.09 0.10 0.06 0.06 0.06 0.07 0.12 0.09 0.15 0.06 0.06 0.08 0.12 0.16 0.24 0.41 0.21 0.16 0.17 0.06 0.16 0.18 0.17 0.11 0.20 0.46 0.23 0.34 0.58 0.47 0.16 0.12 0.06 0.10 0.11 0.09 0.13 0.29 0.22 0.19 0.25 0.21 0.24 0.14 0.22 0.28
0.00 0.00 0.00 0.00 0.00 0.00 0.00 0.01 0.00 0.00 0.00 0.00 0.00 0.00 0.00 0.00 0.00 0.00 0.00 0.00 0.00 0.00 0.00 0.00 0.00 0.00 0.00 0.00 0.00 0.00 0.00 0.01 0.01 0.01 0.01 0.00 0.00 0.01 0.01 0.00 0.00 0.02 0.01 0.03 0.01 0.02 0.03 0.07 0.07 0.12 0.09 0.07 0.08 0.07 0.10 0.18 0.13 0.16 0.15 0.16 0.09 0.14 0.08 0.21 0.24 0.42 0.49 0.33 0.19 0.14 0.11 0.10 0.21 0.31 0.15 0.35 0.41 0.17 0.26 0.26 0.29 0.39 0.23 0.15 0.09 0.09 0.08 0.08 0.09 0.14 0.12 0.11 0.20 0.39 0.62 0.34 0.20
0.00 0.00 0.00 0.00 0.00 0.00 0.00 0.00 0.00 0.00 0.00 0.00 0.00 0.00 0.00 0.00 0.00 0.00 0.00 0.00 0.00 0.00 0.00 0.00 0.00 0.00 0.00 0.00 0.00 0.00 0.00 0.00 0.00 0.00 0.00 0.01 0.01 0.01 0.01 0.01 0.00 0.02 0.01 0.02 0.02 0.02 0.02 0.05 0.03 0.09 0.06 0.07 0.07 0.10 0.11 0.10 0.18 0.25 0.20 0.14 0.15 0.12 0.12 0.19 0.30 0.41 0.46 0.36 0.12 0.15 0.09 0.10 0.05 0.07 0.06 0.23 0.21 0.17 0.21 0.08 0.11 0.17 0.19 0.14 0.12 0.13 0.16 0.17 0.16 0.12 0.08 0.09 0.07 0.38 0.32 0.22 0.36
0.00 0.00 0.00 0.00 0.00 0.00 0.00 0.00 0.00 0.00 0.00 0.00 0.00 0.00 0.00 0.00 0.00 0.00 0.00 0.00 0.00 0.00 0.00 0.00 0.00 0.00 0.00 0.00 0.00 0.00 0.00 0.00 0.00 0.00 0.01 0.01 0.01 0.01 0.00 0.03 0.00 0.00 0.00 0.01 0.02 0.02 0.01 0.02 0.03 0.03 0.08 0.05 0.06 0.07 0.05 0.05 0.07 0.08 0.15 0.17 0.25 0.37 0.30 0.30 0.53 0.47 0.50 0.18 0.12 0.19 0.04 0.10 0.06 0.03 0.16 0.12 0.12 0.27 0.17 0.10 0.09 0.11 0.13 0.21 0.18 0.16 0.16 0.13 0.06 0.10 0.10 0.13 0.18 0.09 0.05 0.11 0.08
0.00 0.00 0.00 0.00 0.00 0.00 0.00 0.00 0.00 0.00 0.00 0.00 0.00 0.00 0.00 0.00 0.00 0.00 0.00 0.00 0.00 0.00 0.00 0.00 0.00 0.00 0.00 0.00 0.00 0.00 0.00 0.00 0.00 0.00 0.00 0.01 0.01 0.01 0.00 0.00 0.01 0.01 0.00 0.01 0.01 0.01 0.01 0.01 0.01 0.02 0.04 0.04 0.05 0.04 0.04 0.04 0.05 0.04 0.05 0.05 0.20 0.28 0.32 0.32 0.35 0.16 0.12 0.11 0.08 0.06 0.05 0.06 0.12 0.05 0.14 0.08 0.13 0.13 0.15 0.10 0.19 0.12 0.13 0.17 0.22 0.14 0.13 0.18 0.12 0.14 0.13 0.18 0.21 0.15 0.07 0.05 0.04
0.00 0.00 0.00 0.00 0.00 0.00 0.00 0.00 0.00 0.00 0.00 0.00 0.00 0.00 0.00 0.00 0.00 0.00 0.00 0.00 0.00 0.00 0.00 0.00 0.00 0.00 0.00 0.00 0.00 0.01 0.00 0.00 0.01 0.00 0.00 0.00 0.00 0.00 0.00 0.00 0.00 0.00 0.00 0.00 0.00 0.00 0.01 0.01 0.02 0.02 0.02 0.04 0.04 0.03 0.02 0.02 0.03 0.02 0.05 0.12 0.11 0.06 0.06 0.06 0.12 0.08 0.03 0.06 0.07 0.03 0.03 0.03 0.04 0.02 0.05 0.05 0.03 0.06 0.12 0.19 0.16 0.09 0.14 0.15 0.14 0.24 0.24 0.24 0.25 0.23 0.12 0.20 0.20 0.17 0.14 0.07 0.03
0.00 0.00 0.00 0.00 0.00 0.00 0.00 0.00 0.00 0.00 0.00 0.00 0.00 0.12 0.00 0.00 0.00 0.00 0.00 0.00 0.00 0.00 0.00 0.00 0.00 0.00 0.00 0.00 0.00 0.01 0.01 0.01 0.00 0.00 0.00 0.00 0.00 0.00 0.00 0.00 0.00 0.00 0.00 0.00 0.00 0.00 0.00 0.01 0.01 0.01 0.01 0.02 0.03 0.02 0.02 0.04 0.02 0.02 0.04 0.07 0.02 0.04 0.01 0.01 0.03 0.03 0.04 0.03 0.06 0.10 0.06 0.03 0.02 0.04 0.08 0.09 0.05 0.12 0.14 0.24 0.21 0.22 0.14 0.17 0.27 0.36 0.25 0.22 0.20 0.29 0.16 0.31 0.25 0.15 0.09 0.07 0.03
0.00 0.00 0.00 0.00 0.00 0.00 0.00 0.00 0.00 0.00 0.00 0.00 0.01 0.02 0.00 0.00 0.00 0.00 0.00 0.00 0.00 0.01 0.00 0.00 0.00 0.00 0.00 0.00 0.00 0.00 0.00 0.00 0.00 0.00 0.00 0.00 0.00 0.00 0.00 0.01 0.01 0.01 0.01 0.00 0.00 0.01 0.00 0.00 0.01 0.01 0.02 0.03 0.02 0.02 0.02 0.02 0.02 0.05 0.02 0.03 0.02 0.02 0.01 0.01 0.01 0.01 0.05 0.02 0.03 0.20 0.16 0.19 0.14 0.35 0.29 0.17 0.06 0.08 0.10 0.08 0.36 0.33 0.33 0.33 0.26 0.30 0.20 0.31 0.21 0.36 0.28 0.23 0.18 0.08 0.15 0.07 0.11
0.00 0.00 0.00 0.02 0.03 0.00 0.00 0.00 0.00 0.00 0.00 0.00 0.00 0.01 0.03 0.01 0.00 0.00 0.00 0.00 0.00 0.00 0.01 0.01 0.00 0.00 0.00 0.00 0.01 0.00 0.00 0.00 0.00 0.00 0.00 0.00 0.00 0.01 0.01 0.01 0.00 0.01 0.00 0.01 0.01 0.01 0.02 0.03 0.03 0.04 0.02 0.02 0.02 0.02 0.04 0.03 0.03 0.02 0.02 0.01 0.03 0.03 0.02 0.03 0.05 0.25 0.23 0.16 0.07 0.07 0.07 0.13 0.29 0.87 0.43 0.34 0.20 0.06 0.14 0.18 0.33 0.34 0.28 0.40 0.38 0.44 0.42 0.33 0.42 0.32 0.22 0.28 0.11 0.05 0.06 0.05 0.05
0.00 0.00 0.00 0.00 0.01 0.02 0.00 0.00 0.00 0.00 0.00 0.00 0.06 0.00 0.00 0.02 0.00 0.00 0.00 0.00 0.00 0.01 0.01 0.00 0.02 0.01 0.00 0.00 0.00 0.01 0.02 0.01 0.01 0.00 0.00 0.00 0.03 0.11 0.01 0.01 0.01 0.01 0.01 0.01 0.01 0.01 0.02 0.01 0.01 0.01 0.01 0.01 0.02 0.03 0.03 0.03 0.03 0.03 0.04 0.03 0.03 0.04 0.04 0.03 0.04 0.06 0.06 0.10 0.18 0.11 0.17 0.18 0.17 0.37 0.47 0.25 0.26 0.14 0.15 0.14 0.18 0.23 0.35 0.42 0.32 0.34 0.26 0.32 0.41 0.38 0.33 0.26 0.21 0.11 0.07 0.07 0.05
0.00 0.00 0.00 0.00 0.00 0.00 0.00 0.00 0.00 0.00 0.00 0.00 0.00 0.01 0.00 0.02 0.00 0.00 0.00 0.00 0.00 0.00 0.01 0.03 0.03 0.01 0.01 0.02 0.01 0.00 0.00 0.01 0.01 0.00 0.00 0.01 0.05 0.13 0.11 0.03 0.02 0.01 0.00 0.01 0.01 0.01 0.01 0.02 0.01 0.01 0.02 0.01 0.01 0.02 0.01 0.02 0.03 0.02 0.03 0.04 0.04 0.09 0.71 0.22 0.06 0.03 0.03 0.07 0.11 0.10 0.12 0.15 0.31 0.65 0.38 0.48 0.20 0.20 0.21 0.20 0.21 0.21 0.27 0.36 0.32 0.24 0.42 0.44 0.40 0.37 0.33 0.36 0.28 0.23 0.16 0.09 0.06
0.00 0.00 0.00 0.00 0.00 0.00 0.01 0.00 0.00 0.00 0.00 0.01 0.00 0.05 0.00 0.00 0.00 0.00 0.00 0.00 0.00 0.00 0.03 0.01 0.01 0.06 0.02 0.02 0.05 0.03 0.01 0.01 0.01 0.00 0.00 0.02 0.02 0.03 0.07 0.07 0.01 0.01 0.01 0.00 0.00 0.00 0.01 0.02 0.01 0.01 0.01 0.01 0.01 0.01 0.02 0.02 0.03 0.03 0.04 0.03 0.04 0.09 0.73 0.45 0.08 0.05 0.02 0.05 0.10 0.19 0.30 0.20 0.38 0.57 0.67 0.76 0.27 0.19 0.12 0.19 0.25 0.16 0.18 0.22 0.32 0.32 0.32 0.28 0.30 0.20 0.16 0.27 0.26 0.18 0.23 0.21 0.33
0.00 0.00 0.00 0.00 0.00 0.00 0.02 0.00 0.00 0.00 0.00 0.00 0.00 0.01 0.00 0.00 0.00 0.00 0.00 0.00 0.00 0.00 0.00 0.01 0.00 0.02 0.03 0.02 0.02 0.01 0.01 0.03 0.05 0.03 0.02 0.03 0.01 0.02 0.02 0.01 0.01 0.03 0.00 0.01 0.03 0.00 0.01 0.02 0.01 0.01 0.01 0.01 0.03 0.02 0.03 0.06 0.06 0.08 0.21 0.21 0.13 0.06 0.32 0.07 0.10 0.27 0.18 0.05 0.19 0.17 0.27 0.17 0.17 0.37 0.32 0.41 0.40 0.17 0.13 0.20 0.17 0.14 0.19 0.15 0.22 0.26 0.25 0.20 0.29 0.49 0.24 0.11 0.20 0.34 0.21 0.21 0.14
0.00 0.00 0.00 0.00 0.00 0.00 0.00 0.00 0.00 0.00 0.00 0.00 0.01 0.00 0.00 0.00 0.00 0.00 0.00 0.00 0.00 0.00 0.01 0.04 0.05 0.01 0.05 0.06 0.04 0.01 0.04 0.03 0.01 0.01 0.02 0.00 0.00 0.01 0.02 0.00 0.05 0.00 0.00 0.01 0.01 0.01 0.01 0.03 0.02 0.02 0.01 0.01 0.02 0.07 0.06 0.07 0.16 0.34 0.35 0.36 0.59 1.04 0.81 0.34 0.09 0.13 0.04 0.16 0.55 0.46 0.19 0.17 0.18 0.16 0.16 0.24 0.34 0.29 0.19 0.20 0.14 0.15 0.28 0.16 0.21 0.29 0.31 0.34 0.53 0.56 0.16 0.39 0.24 0.35 0.29 0.16 0.14
0.00 0.00 0.00 0.00 0.00 0.00 0.00 0.00 0.00 0.00 0.00 0.00 0.00 0.00 0.00 0.00 0.00 0.00 0.00 0.00 0.00 0.00 0.01 0.02 0.14 0.01 0.01 0.04 0.02 0.00 0.04 0.03 0.01 0.01 0.01 0.02 0.01 0.01 0.00 0.00 0.00 0.01 0.00 0.00 0.01 0.01 0.03 0.04 0.05 0.03 0.03 0.03 0.02 0.07 0.11 0.10 0.19 0.19 0.19 0.30 1.30 0.84 0.66 0.97 0.13 0.13 0.06 0.15 0.24 0.33 0.09 0.07 0.13 0.18 0.12 0.06 0.09 0.10 0.10 0.09 0.11 0.19 0.20 0.19 0.28 0.39 0.64 0.30 0.30 0.37 0.23 0.26 0.24 0.38 0.20 0.16 0.09
0.00 0.00 0.00 0.00 0.00 0.00 0.00 0.00 0.00 0.00 0.00 0.00 0.00 0.00 0.01 0.00 0.00 0.00 0.00 0.00 0.00 0.00 0.00 0.02 0.02 0.03 0.06 0.03 0.04 0.02 0.02 0.02 0.01 0.02 0.02 0.01 0.00 0.00 0.00 0.00 0.00 0.00 0.01 0.00 0.01 0.02 0.03 0.06 0.03 0.02 0.04 0.12 0.08 0.06 0.14 0.16 0.19 0.17 0.11 0.18 0.14 0.25 0.31 0.33 0.09 0.02 0.07 0.15 0.10 0.04 0.21 0.03 0.06 0.08 0.10 0.10 0.12 0.09 0.09 0.09 0.11 0.07 0.14 0.45 0.82 0.46 0.22 0.23 0.22 0.16 0.13 0.23 0.25 0.23 0.11 0.20 0.25
0.00 0.00 0.00 0.00 0.00 0.00 0.01 0.00 0.00 0.00 0.00 0.00 0.00 0.00 0.01 0.00 0.00 0.00 0.00 0.00 0.00 0.00 0.00 0.00 0.01 0.01 0.00 0.04 0.02 0.04 0.03 0.02 0.01 0.00 0.01 0.01 0.01 0.01 0.00 0.00 0.00 0.00 0.01 0.02 0.06 0.03 0.06 0.04 0.04 0.03 0.02 0.03 0.15 0.13 0.09 0.05 0.09 0.06 0.03 0.02 0.04 0.03 0.03 0.01 0.02 0.01 0.01 0.02 0.07 0.03 0.03 0.04 0.07 0.07 0.10 0.09 0.17 0.16 0.26 0.12 0.16 0.19 0.21 0.59 0.87 0.20 0.22 0.24 0.24 0.27 0.34 0.36 0.15 0.20 0.14 0.11 0.15
0.00 0.00 0.00 0.00 0.00 0.00 0.00 0.00 0.00 0.00 0.00 0.00 0.00 0.00 0.03 0.03 0.02 0.00 0.00 0.00 0.00 0.00 0.00 0.00 0.00 0.01 0.04 0.04 0.01 0.01 0.02 0.00 0.00 0.01 0.02 0.01 0.00 0.00 0.00 0.00 0.00 0.00 0.02 0.03 0.09 0.07 0.02 0.01 0.01 0.02 0.02 0.02 0.01 0.01 0.01 0.02 0.05 0.03 0.03 0.04 0.03 0.03 0.02 0.05 0.06 0.06 0.01 0.01 0.02 0.07 0.10 0.02 0.18 0.21 0.07 0.05 0.13 0.14 0.08 0.14 0.14 0.25 0.34 0.64 0.54 0.43 0.38 0.21 0.23 0.21 0.24 0.29 0.43 0.10 0.12 0.13 0.35
0.00 0.00 0.00 0.00 0.00 0.00 0.00 0.00 0.00 0.00 0.00 0.00 0.00 0.03 0.03 0.07 0.03 0.01 0.00 0.00 0.00 0.00 0.00 0.00 0.00 0.01 0.03 0.00 0.02 0.04 0.01 0.03 0.05 0.00 0.00 0.00 0.01 0.00 0.00 0.00 0.00 0.00 0.00 0.00 0.00 0.00 0.00 0.00 0.00 0.00 0.00 0.00 0.00 0.00 0.00 0.01 0.01 0.02 0.02 0.04 0.04 0.02 0.01 0.01 0.01 0.01 0.01 0.01 0.01 0.02 0.04 0.69 0.45 0.29 0.40 0.15 0.11 0.08 0.16 0.37 0.69 0.44 0.32 0.08 0.14 0.35 0.35 0.44 0.16 0.15 0.17 0.12 0.16 0.37 0.28 0.58 0.92
0.00 0.00 0.00 0.00 0.00 0.00 0.00 0.00 0.00 0.01 0.01 0.00 0.00 0.02 0.11 0.10 0.15 0.02 0.02 0.00 0.00 0.00 0.00 0.00 0.00 0.00 0.00 0.01 0.02 0.04 0.01 0.03 0.00 0.00 0.02 0.01 0.00 0.00 0.00 0.00 0.00 0.00 0.00 0.00 0.00 0.00 0.00 0.00 0.00 0.00 0.00 0.00 0.00 0.00 0.00 0.00 0.00 0.01 0.01 0.01 0.00 0.01 0.00 0.00 0.00 0.01 0.01 0.02 0.08 0.13 0.15 0.31 0.59 0.40 0.34 0.03 0.04 0.04 0.12 0.24 0.19 0.14 0.13 0.32 0.47 0.51 0.36 0.28 0.19 0.29 0.34 0.82 0.72 0.37 0.96 1.34 0.55
0.00 0.00 0.00 0.00 0.00 0.00 0.00 0.00 0.00 0.00 0.00 0.00 0.00 0.00 0.05 0.04 0.02 0.02 0.01 0.02 0.01 0.00 0.00 0.00 0.00 0.00 0.00 0.01 0.02 0.02 0.01 0.01 0.00 0.00 0.01 0.00 0.00 0.00 0.00 0.00 0.00 0.00 0.00 0.00 0.00 0.00 0.00 0.00 0.00 0.00 0.00 0.00 0.00 0.00 0.00 0.00 0.00 0.00 0.00 0.00 0.00 0.00 0.00 0.00 0.01 0.00 0.01 0.02 0.01 0.02 0.06 0.21 0.27 0.06 0.02 0.01 0.02 0.03 0.05 0.11 0.20 0.24 0.42 0.15 0.41 0.22 0.19 0.14 0.20 0.72 0.70 1.37 0.45 0.96 1.79 1.84 0.14
0.00 0.00 0.00 0.00 0.00 0.00 0.00 0.00 0.00 0.01 0.01 0.06 0.00 0.00 0.03 0.00 0.01 0.00 0.00 0.02 0.00 0.00 0.01 0.00 0.00 0.00 0.01 0.01 0.01 0.00 0.02 0.02 0.03 0.02 0.00 0.00 0.00 0.01 0.01 0.00 0.00 0.00 0.00 0.00 0.00 0.00 0.00 0.00 0.00 0.00 0.00 0.00 0.00 0.00 0.00 0.00 0.01 0.01 0.05 0.04 0.03 0.01 0.01 0.02 0.01 0.02 0.02 0.04 0.02 0.01 0.01 0.01 0.00 0.04 0.07 0.08 0.02 0.02 0.03 0.07 0.09 0.08 0.12 0.11 0.40 0.28 0.15 0.12 0.69 0.82 0.67 0.36 0.97 1.86 0.56 0.18 0.15
0.00 0.00 0.00 0.00 0.00 0.00 0.00 0.00 0.00 0.00 0.01 0.03 0.00 0.00 0.05 0.00 0.01 0.00 0.00 0.00 0.00 0.01 0.01 0.00 0.00 0.00 0.01 0.00 0.00 0.01 0.02 0.00 0.01 0.00 0.00 0.01 0.00 0.01 0.02 0.01 0.01 0.00 0.00 0.00 0.00 0.00 0.00 0.00 0.00 0.00 0.00 0.00 0.00 0.00 0.00 0.00 0.00 0.00 0.00 0.00 0.00 0.02 0.05 0.02 0.03 0.05 0.06 0.02 0.01 0.00 0.00 0.01 0.01 0.01 0.02 0.04 0.03 0.03 0.05 0.06 0.07 0.07 0.16 0.32 0.34 0.23 0.17 0.43 1.15 0.32 0.12 0.23 0.58 0.84 0.63 0.63 0.21
0.00 0.00 0.00 0.00 0.00 0.00 0.00 0.00 0.00 0.01 0.01 0.00 0.00 0.01 0.00 0.02 0.01 0.01 0.00 0.00 0.00 0.00 0.00 0.00 0.01 0.00 0.01 0.01 0.03 0.00 0.02 0.01 0.01 0.01 0.00 0.02 0.02 0.01 0.03 0.00 0.00 0.01 0.00 0.00 0.00 0.00 0.00 0.00 0.00 0.00 0.00 0.00 0.00 0.00 0.00 0.00 0.00 0.00 0.00 0.00 0.00 0.00 0.00 0.02 0.03 0.01 0.00 0.02 0.01 0.00 0.00 0.00 0.01 0.01 0.01 0.01 0.02 0.02 0.02 0.02 0.06 0.19 0.35 0.23 0.35 0.36 0.27 0.20 0.12 0.20 0.16 0.45 0.73 0.38 0.47 0.31 0.27
0.00 0.00 0.00 0.00 0.00 0.00 0.00 0.00 0.00 0.00 0.00 0.00 0.00 0.00 0.00 0.02 0.00 0.00 0.00 0.00 0.00 0.00 0.00 0.00 0.01 0.00 0.00 0.01 0.00 0.01 0.01 0.01 0.01 0.01 0.01 0.02 0.04 0.05 0.02 0.01 0.01 0.00 0.00 0.00 0.00 0.00 0.00 0.00 0.00 0.00 0.00 0.00 0.00 0.00 0.00 0.00 0.00 0.00 0.00 0.00 0.00 0.00 0.00 0.00 0.00 0.00 0.00 0.00 0.00 0.00 0.00 0.00 0.00 0.00 0.01 0.01 0.02 0.02 0.03 0.02 0.06 0.22 0.06 0.07 0.09 0.17 0.28 0.28 0.20 0.19 0.17 0.19 0.65 0.16 0.82 0.50 0.34
0.00 0.00 0.00 0.00 0.00 0.00 0.00 0.00 0.00 0.00 0.00 0.00 0.00 0.00 0.02 0.00 0.00 0.00 0.00 0.00 0.00 0.00 0.00 0.00 0.00 0.00 0.00 0.00 0.00 0.00 0.00 0.00 0.00 0.00 0.00 0.01 0.00 0.00 0.00 0.00 0.00 0.00 0.00 0.00 0.00 0.00 0.00 0.00 0.00 0.00 0.00 0.00 0.00 0.00 0.00 0.00 0.00 0.00 0.00 0.00 0.00 0.00 0.00 0.00 0.00 0.00 0.00 0.01 0.00 0.00 0.00 0.00 0.00 0.02 0.02 0.01 0.01 0.01 0.03 0.02 0.02 0.06 0.04 0.05 0.04 0.02 0.05 0.04 0.22 0.15 0.15 0.10 0.20 0.20 0.47 0.26 0.21
0.00 0.00 0.00 0.00 0.00 0.00 0.00 0.00 0.00 0.00 0.00 0.00 0.00 0.00 0.00 0.00 0.00 0.00 0.00 0.00 0.00 0.00 0.00 0.00 0.00 0.00 0.00 0.00 0.00 0.00 0.00 0.00 0.01 0.02 0.01 0.01 0.00 0.00 0.00 0.00 0.00 0.00 0.00 0.00 0.00 0.00 0.00 0.00 0.00 0.00 0.00 0.00 0.00 0.00 0.00 0.00 0.00 0.00 0.00 0.00 0.00 0.00 0.00 0.00 0.00 0.00 0.00 0.00 0.00 0.00 0.00 0.00 0.00 0.00 0.00 0.00 0.00 0.01 0.01 0.02 0.02 0.03 0.02 0.03 0.03 0.04 0.03 0.06 0.09 0.09 0.11 0.18 0.18 0.35 0.46 0.39 0.46
0.00 0.00 0.00 0.00 0.00 0.00 0.00 0.00 0.00 0.00 0.00 0.00 0.00 0.00 0.00 0.00 0.00 0.00 0.00 0.00 0.00 0.00 0.00 0.00 0.00 0.00 0.00 0.01 0.00 0.00 0.00 0.01 0.01 0.01 0.02 0.01 0.00 0.02 0.00 0.00 0.00 0.00 0.00 0.00 0.00 0.00 0.00 0.00 0.00 0.00 0.00 0.00 0.00 0.00 0.00 0.00 0.00 0.00 0.00 0.00 0.00 0.00 0.00 0.00 0.00 0.00 0.00 0.00 0.00 0.00 0.00 0.00 0.00 0.00 0.00 0.01 0.01 0.01 0.02 0.01 0.01 0.02 0.03 0.03 0.03 0.07 0.10 0.07 0.14 0.08 0.08 0.13 0.14 0.30 0.46 0.37 0.29
0.00 0.00 0.00 0.00 0.00 0.00 0.00 0.00 0.00 0.00 0.00 0.00 0.01 0.00 0.00 0.00 0.00 0.00 0.00 0.00 0.00 0.00 0.00 0.00 0.00 0.00 0.00 0.01 0.01 0.00 0.00 0.00 0.01 0.00 0.02 0.01 0.00 0.00 0.02 0.00 0.01 0.00 0.00 0.00 0.00 0.00 0.00 0.00 0.00 0.00 0.00 0.00 0.00 0.00 0.00 0.00 0.00 0.00 0.00 0.00 0.00 0.00 0.00 0.00 0.00 0.00 0.00 0.00 0.00 0.01 0.01 0.01 0.00 0.00 0.00 0.00 0.00 0.01 0.02 0.02 0.00 0.01 0.02 0.02 0.03 0.05 0.09 0.07 0.03 0.03 0.04 0.04 0.04 0.04 0.09 0.14 0.25
0.00 0.00 0.00 0.00 0.00 0.00 0.00 0.00 0.00 0.00 0.00 0.00 0.00 0.00 0.00 0.00 0.00 0.00 0.00 0.00 0.00 0.00 0.00 0.00 0.00 0.00 0.00 0.00 0.01 0.02 0.00 0.00 0.00 0.00 0.00 0.00 0.01 0.02 0.03 0.02 0.00 0.00 0.00 0.00 0.00 0.00 0.00 0.00 0.00 0.00 0.00 0.00 0.00 0.00 0.00 0.00 0.00 0.00 0.00 0.00 0.00 0.00 0.00 0.00 0.00 0.00 0.00 0.00 0.00 0.00 0.00 0.00 0.00 0.01 0.01 0.00 0.00 0.01 0.01 0.02 0.02 0.01 0.01 0.01 0.02 0.02 0.03 0.03 0.06 0.06 0.10 0.04 0.03 0.03 0.06 0.08 0.08
0.00 0.00 0.00 0.00 0.00 0.00 0.00 0.00 0.00 0.00 0.00 0.00 0.00 0.00 0.02 0.00 0.01 0.00 0.00 0.00 0.00 0.00 0.00 0.00 0.00 0.00 0.00 0.00 0.00 0.00 0.00 0.00 0.00 0.00 0.00 0.00 0.01 0.02 0.02 0.05 0.01 0.00 0.00 0.00 0.00 0.00 0.00 0.00 0.00 0.00 0.00 0.00 0.00 0.00 0.00 0.00 0.00 0.00 0.00 0.00 0.00 0.00 0.00 0.00 0.00 0.00 0.00 0.00 0.00 0.00 0.01 0.01 0.01 0.01 0.00 0.01 0.00 0.01 0.01 0.01 0.01 0.02 0.03 0.02 0.02 0.02 0.02 0.03 0.04 0.03 0.04 0.02 0.03 0.03 0.08 0.05 0.11
0.00 0.00 0.00 0.00 0.00 0.00 0.00 0.00 0.00 0.00 0.00 0.00 0.00 0.00 0.00 0.00 0.01 0.00 0.00 0.00 0.00 0.00 0.00 0.00 0.00 0.00 0.00 0.00 0.00 0.00 0.00 0.02 0.01 0.01 0.00 0.00 0.00 0.01 0.02 0.01 0.00 0.00 0.00 0.00 0.00 0.00 0.00 0.00 0.00 0.00 0.00 0.00 0.00 0.00 0.00 0.00 0.00 0.00 0.00 0.00 0.00 0.00 0.00 0.00 0.00 0.00 0.00 0.00 0.00 0.00 0.00 0.00 0.00 0.00 0.01 0.01 0.02 0.01 0.01 0.01 0.01 0.02 0.02 0.01 0.01 0.01 0.01 0.01 0.02 0.03 0.03 0.03 0.05 0.03 0.03 0.05 0.06
0.00 0.00 0.00 0.00 0.00 0.00 0.00 0.00 0.00 0.00 0.00 0.00 0.00 0.00 0.00 0.00 0.00 0.00 0.00 0.00 0.00 0.00 0.00 0.00 0.00 0.00 0.00 0.00 0.00 0.00 0.00 0.00 0.00 0.01 0.01 0.00 0.01 0.02 0.05 0.05 0.02 0.02 0.00 0.00 0.00 0.00 0.00 0.00 0.00 0.00 0.00 0.00 0.00 0.00 0.00 0.00 0.00 0.00 0.00 0.00 0.00 0.00 0.00 0.00 0.00 0.00 0.00 0.00 0.00 0.00 0.00 0.00 0.00 0.01 0.01 0.00 0.01 0.00 0.01 0.01 0.01 0.02 0.01 0.01 0.00 0.01 0.01 0.01 0.02 0.03 0.03 0.04 0.03 0.05 0.05 0.05 0.08
0.00 0.00 0.00 0.00 0.00 0.00 0.00 0.00 0.00 0.00 0.00 0.00 0.00 0.00 0.00 0.00 0.00 0.00 0.00 0.00 0.00 0.00 0.00 0.00 0.00 0.00 0.00 0.00 0.00 0.00 0.00 0.00 0.00 0.00 0.00 0.00 0.01 0.03 0.01 0.02 0.01 0.02 0.00 0.00 0.00 0.00 0.00 0.00 0.00 0.00 0.00 0.00 0.00 0.00 0.00 0.00 0.00 0.00 0.00 0.00 0.00 0.00 0.00 0.00 0.00 0.00 0.00 0.00 0.00 0.00 0.00 0.00 0.00 0.00 0.00 0.01 0.00 0.01 0.01 0.00 0.01 0.01 0.01 0.01 0.02 0.01 0.03 0.03 0.04 0.03 0.03 0.04 0.03 0.04 0.04 0.06 0.07
0.00 0.00 0.00 0.00 0.00 0.00 0.00 0.00 0.00 0.00 0.00 0.00 0.00 0.00 0.00 0.00 0.00 0.00 0.00 0.00 0.00 0.00 0.00 0.00 0.00 0.00 0.00 0.00 0.00 0.00 0.00 0.00 0.00 0.03 0.02 0.03 0.00 0.02 0.00 0.03 0.01 0.02 0.03 0.00 0.01 0.00 0.00 0.00 0.00 0.00 0.00 0.00 0.00 0.01 0.01 0.02 0.00 0.00 0.00 0.00 0.00 0.00 0.00 0.00 0.00 0.00 0.00 0.00 0.00 0.00 0.00 0.00 0.00 0.00 0.00 0.00 0.00 0.00 0.00 0.01 0.01 0.01 0.01 0.01 0.02 0.02 0.02 0.04 0.04 0.04 0.03 0.04 0.03 0.03 0.05 0.08 0.04